Location: Newark
(40.3500°N, 15.2333°E)
Time: 22:01:20
(UTC+00:00)

X-37B - Visible Passes

Search period start: 20 September 2020 00:00
Search period end: 30 September 2020 00:00
Orbit: 386 x 387 km, 45.0° (Epoch: 18 September)

Date Brightness Start Highest point End Pass type
(mag) Time Alt. Az. Time Alt. Az. Time Alt. Az.
20 Sep 1.8 03:05:33 32° NNW 03:06:06 35° N 03:09:04 10° ENE visible
21 Sep 3.9 02:09:45 14° ENE 02:09:45 14° ENE 02:10:19 10° ENE visible
21 Sep 1.0 03:42:02 17° WNW 03:44:20 59° NNE 03:47:29 10° E visible
22 Sep 2.1 02:46:20 36° NE 02:46:20 36° NE 02:48:44 10° E visible
23 Sep 0.5 03:23:00 47° WNW 03:23:49 86° SSW 03:27:00 10° ESE visible
24 Sep 3.5 02:27:32 17° E 02:27:32 17° E 02:28:22 10° E visible
24 Sep 1.8 03:59:50 16° W 04:01:41 26° SW 04:04:25 10° SSE visible
25 Sep 2.1 03:04:31 28° SSE 03:04:31 28° SSE 03:06:18 10° SE visible
26 Sep 2.7 03:41:39 14° SSW 03:41:39 14° SSW 03:42:47 10° S visible
